Sanford, ME

1:23 PM EDT on June 22, 2017 (GMT -0400)
Sanford Regional

Weather History for KSFM - March, 2013

Change the Weather History Date:

Tuesday, March 19, 2013

  Actual Average Record
Temperature  
Mean Temperature 28 °F -  
Max Temperature 32 °F 38 °F 75 °F (2012)
Min Temperature 23 °F 21 °F 3 °F (1997)
Degree Days  
Heating Degree Days 37    
Moisture  
Dew Point 24 °F    
Average Humidity 85    
Maximum Humidity 100    
Minimum Humidity 50    
Precipitation  
Precipitation 0.03 in - - ()
Sea Level Pressure  
Sea Level Pressure 29.92 in    
Wind  
Wind Speed 9 mph (ENE)    
Max Wind Speed 23 mph    
Max Gust Speed 39 mph    
Visibility 2 miles    
Events      
Averages and records for this station are not official NWS values.
T = Trace of Precipitation, MM = Missing Value Source: NWS Daily Summary

Daily Weather History Graph

Daily Weather History Graph

Search for Another Location

Airport or City:

Trip Planner

Search our weather history database for the weather conditions in past years. The results will help you decide how hot, cold, wet, or windy it might be!

Date:

Astronomy

Mar. 19, 2013 Rise Set
Actual Time 6:47 AM EDT 6:54 PM EDT
Civil Twilight 6:19 AM EDT 7:22 PM EDT
Nautical Twilight 5:45 AM EDT 7:56 PM EDT
Astronomical Twilight 5:11 AM EDT 8:30 PM EDT
Moon 11:25 AM EDT (3/19) 1:48 AM EDT (3/19)
Length of Visible Light 13h 03m
Length of Day
12h 06m
Waxing Crescent, 49% of the Moon is Illuminated
Mar 19
Waxing Crescent
Mar 19
First Quarter
Mar 27
Full
Apr 3
Last Quarter
Apr 10
New

Hourly Weather History & Observations

Time (EDT) Temp. Windchill Dew Point Humidity Pressure Visibility Wind Dir Wind Speed Gust Speed Precip Events Conditions
12:15 AM 28.4 °F 24.6 °F 21.2 °F 74% 30.24 in 10.0 mi East 3.5 mph - N/A   Overcast
12:35 AM 28.4 °F - 21.2 °F 74% 30.24 in 10.0 mi Calm Calm - N/A   Overcast
12:55 AM 28.4 °F - 17.6 °F 64% 30.21 in 10.0 mi Calm Calm - N/A   Overcast
1:15 AM 30.2 °F - 19.4 °F 64% 30.20 in 10.0 mi Calm Calm - N/A   Overcast
1:35 AM 30.2 °F 24.3 °F 26.6 °F 86% 30.20 in 3.0 mi South 5.8 mph - N/A   Overcast
1:55 AM 28.4 °F 24.6 °F 24.8 °F 86% 30.19 in 1.5 mi South 3.5 mph - N/A   Overcast
2:15 AM 28.4 °F 22.2 °F 23.0 °F 80% 30.18 in 1.2 mi SE 5.8 mph - N/A   Overcast
2:35 AM 28.4 °F 24.6 °F 24.8 °F 86% 30.17 in 1.2 mi SE 3.5 mph - N/A   Overcast
2:55 AM 28.4 °F 23.3 °F 28.4 °F 100% 30.15 in 1.5 mi ESE 4.6 mph - N/A   Overcast
3:15 AM 28.4 °F 20.4 °F 21.2 °F 74% 30.14 in 2.5 mi ESE 8.1 mph - N/A   Overcast
3:35 AM 28.4 °F 22.2 °F 24.8 °F 86% 30.13 in 1.5 mi East 5.8 mph - N/A   Overcast
3:55 AM 28.4 °F 19.1 °F 26.6 °F 93% 30.13 in 1.0 mi East 10.4 mph - N/A   Overcast
4:15 AM 28.4 °F 20.4 °F 24.8 °F 86% 30.13 in 1.2 mi East 8.1 mph - N/A   Overcast
4:35 AM 28.4 °F 21.2 °F 23.0 °F 80% 30.13 in 1.0 mi East 6.9 mph - N/A   Overcast
4:55 AM 28.4 °F 20.4 °F 26.6 °F 93% 30.13 in 1.0 mi East 8.1 mph - N/A   Overcast
5:15 AM 28.4 °F 21.2 °F 26.6 °F 93% 30.11 in 1.0 mi East 6.9 mph - N/A   Overcast
5:35 AM 28.4 °F 19.7 °F 21.2 °F 74% 30.10 in 0.8 mi East 9.2 mph - N/A   Overcast
5:55 AM 28.4 °F 20.4 °F 24.8 °F 86% 30.09 in 0.8 mi East 8.1 mph - N/A   Overcast
6:15 AM 28.4 °F 22.2 °F 26.6 °F 93% 30.10 in 0.8 mi East 5.8 mph - N/A   Overcast
6:35 AM 28.4 °F 19.1 °F 24.8 °F 86% 30.10 in 1.2 mi East 10.4 mph - N/A   Overcast
6:55 AM 28.4 °F 21.2 °F 26.6 °F 93% 30.09 in 0.5 mi East 6.9 mph - 0.01 in   Overcast
7:15 AM 28.4 °F 21.2 °F 28.4 °F 100% 30.08 in 0.8 mi East 6.9 mph 16.1 mph N/A   Overcast
7:35 AM 28.4 °F 19.7 °F 23.0 °F 80% 30.07 in 1.0 mi East 9.2 mph - N/A   Overcast
8:15 AM 28.4 °F 17.5 °F 28.4 °F 100% 30.06 in 1.0 mi East 13.8 mph 20.7 mph N/A   Overcast
8:35 AM 30.2 °F 20.8 °F 23.0 °F 75% 30.05 in 1.0 mi East 11.5 mph 19.6 mph N/A   Overcast
8:55 AM 30.2 °F 21.3 °F 26.6 °F 86% 30.04 in 0.8 mi East 10.4 mph - N/A   Overcast
9:15 AM 30.2 °F 20.2 °F 28.4 °F 93% 30.03 in 0.5 mi ENE 12.7 mph 19.6 mph N/A   Overcast
9:35 AM 30.2 °F 20.8 °F 24.8 °F 80% 30.02 in 0.8 mi East 11.5 mph 20.7 mph N/A   Overcast
9:55 AM 30.2 °F 19.3 °F 26.6 °F 86% 30.01 in 0.8 mi East 15.0 mph 23.0 mph N/A   Overcast
10:35 AM 30.2 °F 20.8 °F 24.8 °F 80% 29.99 in 0.8 mi East 11.5 mph 18.4 mph N/A   Overcast
10:55 AM 30.2 °F 21.3 °F 26.6 °F 86% 29.98 in 0.8 mi East 10.4 mph 20.7 mph N/A   Overcast
11:15 AM 30.2 °F 21.3 °F 30.2 °F 100% 29.97 in 0.8 mi East 10.4 mph 23.0 mph 0.01 in   Overcast
11:35 AM 30.2 °F 19.3 °F 26.6 °F 86% 29.96 in 0.8 mi East 15.0 mph 21.9 mph 0.01 in   Overcast
11:55 AM 30.2 °F 19.8 °F 26.6 °F 86% 29.93 in 0.8 mi East 13.8 mph 20.7 mph 0.01 in   Overcast
12:15 PM 30.2 °F 19.3 °F 28.4 °F 93% 29.93 in 0.8 mi ENE 15.0 mph 26.5 mph 0.01 in   Overcast
12:35 PM 30.2 °F 20.2 °F 28.4 °F 93% 29.91 in 0.8 mi East 12.7 mph 27.6 mph 0.01 in   Overcast
12:55 PM 32.0 °F 21.6 °F 24.8 °F 75% 29.90 in 1.8 mi East 15.0 mph 20.7 mph 0.01 in   Overcast
1:15 PM 32.0 °F 19.8 °F 26.6 °F 80% 29.88 in 0.8 mi ENE 20.7 mph 29.9 mph N/A   Overcast
1:35 PM 30.2 °F 18.9 °F 30.2 °F 100% 29.86 in 1.2 mi East 16.1 mph 26.5 mph N/A   Overcast
2:15 PM 30.2 °F 18.5 °F 26.6 °F 86% 29.82 in 0.8 mi ENE 17.3 mph 25.3 mph N/A   Overcast
2:35 PM 30.2 °F 18.5 °F 30.2 °F 100% 29.80 in 1.5 mi ENE 17.3 mph 24.2 mph N/A   Overcast
2:55 PM 30.2 °F 19.3 °F 26.6 °F 86% 29.81 in 1.2 mi East 15.0 mph 24.2 mph N/A   Overcast
3:15 PM 30.2 °F 17.8 °F 26.6 °F 86% 29.82 in 1.0 mi ENE 19.6 mph 25.3 mph N/A   Overcast
3:35 PM 30.2 °F 19.8 °F 30.2 °F 100% 29.83 in 0.8 mi ENE 13.8 mph 24.2 mph N/A   Overcast
3:55 PM 30.2 °F 19.3 °F 26.6 °F 86% 29.84 in 0.5 mi NE 15.0 mph - N/A   Overcast
4:15 PM 30.2 °F 16.8 °F 24.8 °F 80% 29.81 in 0.5 mi NE 23.0 mph 26.5 mph N/A   Overcast
4:35 PM 30.2 °F 18.5 °F 28.4 °F 93% 29.80 in 0.5 mi NE 17.3 mph 25.3 mph N/A   Overcast
4:55 PM 30.2 °F 17.4 °F 26.6 °F 86% 29.78 in 0.2 mi ENE 20.7 mph 26.5 mph N/A   Overcast
5:35 PM 28.4 °F 17.0 °F 28.4 °F 100% 29.73 in 0.5 mi ENE 15.0 mph 39.1 mph N/A   Overcast
5:55 PM 28.4 °F 15.1 °F 26.6 °F 93% 29.71 in 0.5 mi NE 20.7 mph 29.9 mph N/A   Overcast
6:15 PM 28.4 °F 14.7 °F 19.4 °F 69% 29.70 in 0.8 mi NE 21.9 mph 29.9 mph N/A   Overcast
6:35 PM 28.4 °F 15.8 °F 26.6 °F 93% 29.70 in 1.2 mi NNE 18.4 mph 26.5 mph N/A   Overcast
6:55 PM 28.4 °F 15.8 °F 24.8 °F 86% 29.70 in 1.2 mi NE 18.4 mph 27.6 mph N/A   Overcast
7:15 PM 26.6 °F 13.8 °F 19.4 °F 74% 29.69 in 1.5 mi NNE 17.3 mph 24.2 mph N/A   Overcast
7:35 PM 26.6 °F 13.8 °F 26.6 °F 100% 29.68 in 1.5 mi NNE 17.3 mph 24.2 mph N/A   Overcast
7:55 PM 26.6 °F 13.8 °F 19.4 °F 74% 29.69 in 1.8 mi NNE 17.3 mph 26.5 mph N/A   Overcast
8:15 PM 26.6 °F 14.3 °F 21.2 °F 80% 29.69 in 1.8 mi NNE 16.1 mph 25.3 mph N/A   Overcast
8:36 PM 24.8 °F 10.3 °F 24.8 °F 100% 29.67 in 1.8 mi North 20.7 mph 25.3 mph N/A   Overcast
8:55 PM 24.8 °F 12.4 °F 15.8 °F 69% 29.68 in 1.5 mi North 15.0 mph 23.0 mph N/A   Overcast
9:15 PM 24.8 °F 11.5 °F 24.8 °F 100% 29.68 in 1.8 mi North 17.3 mph - N/A   Overcast
9:35 PM 24.8 °F 11.9 °F 14.0 °F 64% 29.67 in 2.0 mi North 16.1 mph 25.3 mph N/A   Overcast
9:55 PM 24.8 °F 10.7 °F 21.2 °F 86% 29.67 in 2.0 mi North 19.6 mph 25.3 mph N/A   Overcast
10:15 PM 24.8 °F 10.0 °F 21.2 °F 86% 29.66 in 1.8 mi North 21.9 mph - N/A   Overcast
10:35 PM 24.8 °F 11.1 °F 14.0 °F 64% 29.66 in 2.5 mi North 18.4 mph 24.2 mph N/A   Overcast
10:55 PM 24.8 °F 10.7 °F 24.8 °F 100% 29.65 in 2.5 mi North 19.6 mph 25.3 mph N/A   Overcast
11:15 PM 24.8 °F 11.9 °F 8.6 °F 50% 29.66 in 4.0 mi NNW 16.1 mph 27.6 mph N/A   Overcast
11:35 PM 24.8 °F 11.5 °F 24.8 °F 100% 29.66 in 3.0 mi North 17.3 mph 26.5 mph N/A   Overcast
11:55 PM 23.0 °F 9.2 °F 10.4 °F 59% 29.66 in 2.0 mi North 17.3 mph 24.2 mph N/A   Overcast